Regional Weather Roundup
Issued by NWS Jackson, KY

Home | Current Version | Previous Version | Text Only | Print | Product List | Glossary On
Versions: 1 2 3 4 5 6 7 8 9 10 11 12 13 14 15 16 17 18 19 20 21 22 23 24 25 26 27 28 29 30 31 32 33 34 35 36 37 38 39 40 41 42 43 44 45 46 47 48 49 50
000
ASUS43 KJKL 290010
RWRJKL

EAST KENTUCKY HOURLY WEATHER ROUNDUP
NATIONAL WEATHER SERVICE JACKSON KY
800 PM EDT THU MAY 28 2015

NOTE: "FAIR" INDICATES FEW OR NO CLOUDS BELOW 12,000 FEET WITH
NO SIGNIFICANT WEATHER AND/OR OBSTRUCTIONS TO VISIBILITY.

* THESE REPORTS ARE NOT UNDER NWS QUALITY CONTROL AND MAY NOT
  REPORT WEATHER SUCH AS PRECIPITATION AND FOG.

KYZ079-080-083-085-087-088-110-112-115-119-120-290100
...EASTERN KENTUCKY...

CITY           SKY/WX    TMP DP  RH WIND       PRES   REMARKS
JACKSON        CLOUDY    76  66  71 CALM      30.19R
6HR MIN TEMP:  76; 6HR MAX TEMP:  79; 6HR PCP: TRACE;

LONDON         CLOUDY    74  65  73 N3        30.19R
6HR MIN TEMP:  74; 6HR MAX TEMP:  76; 6HR PCP: TRACE;

SOMERSET*      CLOUDY    68  68 100 E3        30.19S
MONTICELLO*    PTCLDY    72  68  87 NE7       30.20R
6HR MIN TEMP:  72; 6HR MAX TEMP:  77;

MIDDLESBORO*   CLOUDY    74  69  85 CALM      30.18S
6HR MIN TEMP:  73; 6HR MAX TEMP:  76; 6HR PCP:  0.01;

HARLAN APT*    CLOUDY    70  63  78 MISG      30.21R
BLACK MTN*       N/A     64  61  88 SE2         N/A
PIKEVILLE APT* CLEAR     75  64  69 CALM      30.20R
BIG SANDY*     MOCLDY    75  66  74 CALM      30.19R
6HR MIN TEMP:  75; 6HR MAX TEMP:  82;

MOREHEAD APT*  PTCLDY    75  68  78 CALM      30.20R
$$

KYZ035-036-041-042-044-050-067-078-099-290100
...CENTRAL KENTUCKY...

CITY           SKY/WX    TMP DP  RH WIND       PRES   REMARKS
MT STERLING*   CLOUDY    73  68  83 CALM      30.19S
FLEMING/MASON* CLEAR     77  68  73 S3        30.18S
DANVILLE*      RAIN      70  64  83 S6        30.20R
RICHMOND*      CLOUDY    73  64  73 CALM      30.18R
LEXINGTON      MOCLDY    75  65  70 S5        30.17S
6HR MIN TEMP:  75; 6HR MAX TEMP:  79;

FRANKFORT      MOCLDY    76  66  71 SE5       30.15S
6HR MIN TEMP:  73; 6HR MAX TEMP:  81; 6HR PCP:  0.01;

$$

KYZ091>093-OHZ055-061-077-WVZ005-015-034-035-042-290100
...SOUTHERN OHIO/WEST VIRGINIA...

CITY           SKY/WX    TMP DP  RH WIND       PRES   REMARKS
COVINGTON      PTCLDY    78  64  61 SE6       30.15S
COLUMBUS       PTCLDY    79  61  53 E8        30.16S
DAYTON         PTCLDY    80  62  54 SE8       30.16R
WILMINGTON     CLEAR     79  59  50 S6        30.16R
HUNTINGTON     PTCLDY    77  63  61 CALM      30.16S
CHARLESTON     PTCLDY    81  64  56 CALM      30.17R
PINEVILLE*     PTCLDY    72  69  91 MISG      30.26R
BECKLEY        PTCLDY    76  58  53 NE3       30.25R
BLUEFIELD      CLOUDY    72  58  61 VRB3      30.29R
$$

VAZ002-007-008-TNZ017-027-036-066-071-290100
...SOUTHWEST VIRGINIA/EAST TENNESSEE...

CITY           SKY/WX    TMP DP  RH WIND       PRES   REMARKS
WISE*          CLOUDY    64  61  88 S6        30.30R
JONESVILLE*    MOCLDY    75  68  78 E3        30.22R
ABINGDON*      CLOUDY    71  64  77 N3        30.25S
BRISTOL        CLOUDY    70  64  81 CALM      30.23R
KNOXVILLE      CLOUDY    80  65  59 CALM      30.15S
OAK RIDGE      CLOUDY    81  64  56 VRB5      30.17S
CROSSVILLE     PTCLDY    75  64  68 SE5       30.20R
NASHVILLE      MOCLDY    81  65  58 S8        30.12R
$$

...KEY TO REMARKS...
VSB - VISIBILITY IN MILES
WCI - WIND CHILL INDEX
HX  - HEAT INDEX

$$


USA.gov is the U.S. government's official web portal to all federal, state and local government web resources and services.